Location: アルンシュタイン
(50.0000°N, 10.0000°E)
Time: 10:13:55
(UTC+01:00)

Envisat - Pass Details

Date: 01 October 2023
Orbit: 762 x 764 km, 98.3° (Epoch: 07 December)

Event Time Altitude Azimuth Distance (km) Brightness Sun altitude
Rises 04:20:46 0° 21° (NNE) 3,244 7.0 -28.2°
Reaches altitude 10° 04:23:18 10° 31° (NNE) 2,313 6.2 -27.9°
Maximum altitude 04:27:55 34° 95° (E) 1,253 4.5 -27.2°
Enters shadow 04:31:24 16° 153° (SSE) 1,931 5.0 -26.7°
